Simultaneous Nadir Overpasses (SNOs) Predictions

Prediction of SNOs between LANDSAT-8 and METOP-A Satellite Orbit:

Table of predicted SNOs for the next 14.0 days since TLE Epoch: 12/7/2019
Index Date (LANDSAT-8) Time (LANDSAT-8) Lat,Lon (LANDSAT-8) SZA (LANDSAT-8 ) Date (METOP-A) Time (METOP-A) Lat,Lon (METOP-A) SZA (METOP-A ) Distance(km) Time Diff (sec)
1 12/08/2019 04:13:40 -81.48, -16.89 73.12 12/08/2019 04:13:09 -81.48, -16.92 73.14 0.58 31
2 12/08/2019 05:03:06 81.49, 150.87 106.90 12/08/2019 05:03:49 81.48, 150.77 106.90 2.04 43
3 12/10/2019 23:47:55 -81.48, 49.55 72.88 12/10/2019 23:47:32 -81.48, 49.58 72.89 0.65 23
4 12/11/2019 00:37:21 81.49,-142.72 107.14 12/11/2019 00:38:12 81.48,-142.76 107.15 1.33 51
5 12/13/2019 19:22:10 -81.48, 115.96 72.71 12/13/2019 19:21:55 -81.48, 116.07 72.71 1.89 15
6 12/13/2019 20:11:36 81.49, -76.34 107.30 12/13/2019 20:12:35 81.48, -76.31 107.33 1.04 59
7 12/16/2019 14:56:24 -81.48,-177.66 72.60 12/16/2019 14:56:18 -81.48,-177.85 72.62 3.06 6
8 12/16/2019 15:45:50 81.48, -10.00 107.41 12/16/2019 15:46:57 81.48, -9.87 107.45 2.16 67
9 12/19/2019 09:41:11 81.49, 81.41 107.49 12/19/2019 09:40:00 81.48, 81.26 107.44 2.80 71
10 12/19/2019 10:30:39 -81.48,-111.32 72.56 12/19/2019 10:30:41 -81.48,-111.38 72.56 1.17 2




NCC Satellite Simultaneous Nadir Overpasses (SNOs) Prediction Service
